.
WxDataArchive / Data Records for 2007-08-10
2007-08-09 August 2007 2007-08-11

Data Records for Friday, 10 August 2007

Time	Temp	Chill	HIndex	Humid	Dewpt	 Wind 	HiWind	WindDir	Rain 	Barom 
-----	----	-----	------	-----	-----	------	------	-------	-----	----- 
00:00	76.3	76.3	77.2	83	70.7	0	0	---	0.00	29.793 
00:05	76.1	76.1	76.9	83	70.5	0	0	---	0.00	29.788 
00:10	76.0	76.0	76.7	83	70.4	0	0	---	0.00	29.789 
00:15	75.8	75.8	76.3	84	70.6	0	0	---	0.00	29.788 
00:20	75.6	75.6	76.0	84	70.4	0	0	---	0.00	29.787 
00:25	75.6	75.6	76.0	84	70.4	0	0	---	0.00	29.787 
00:30	75.4	75.4	75.7	84	70.2	0	0	---	0.00	29.789 
00:35	75.4	75.4	75.7	84	70.2	0	0	---	0.00	29.788 
00:40	75.4	75.4	75.7	84	70.2	0	0	---	0.00	29.788 
00:45	75.3	75.3	75.5	84	70.1	0	0	---	0.00	29.787 
00:50	75.3	75.3	75.4	85	70.5	0	0	---	0.00	29.788 
00:55	75.1	75.1	75.0	85	70.3	0	0	---	0.00	29.788 
01:00	74.9	74.9	74.9	86	70.4	0	0	---	0.00	29.790 
01:05	74.7	74.7	74.7	86	70.2	0	0	---	0.00	29.787 
01:10	74.6	74.6	74.6	86	70.1	0	0	---	0.00	29.787 
01:15	74.6	74.6	74.6	87	70.5	0	0	---	0.00	29.786 
01:20	74.4	74.4	74.4	87	70.3	0	0	---	0.00	29.787 
01:25	74.2	74.2	74.2	88	70.4	0	0	---	0.00	29.787 
01:30	74.2	74.2	74.2	88	70.4	0	0	---	0.00	29.788 
01:35	74.0	74.0	74.0	88	70.2	0	0	---	0.00	29.789 
01:40	74.0	74.0	74.0	89	70.5	0	0	---	0.00	29.790 
01:45	73.9	73.9	73.9	89	70.4	0	0	---	0.00	29.792 
01:50	73.9	73.9	73.9	89	70.4	0	1	292	0.00	29.794 
01:55	73.9	73.9	73.9	89	70.4	0	1	292	0.00	29.796 
02:00	73.9	73.9	73.9	89	70.4	0	0	---	0.00	29.797 
02:05	73.7	73.7	73.7	90	70.6	0	0	---	0.00	29.798 
02:10	73.7	73.7	73.7	90	70.6	0	1	292	0.00	29.800 
02:15	73.9	73.9	73.9	90	70.8	0	1	292	0.00	29.800 
02:20	74.0	74.0	74.0	90	70.9	0	2	292	0.00	29.799 
02:25	74.0	74.0	74.0	89	70.5	0	1	292	0.00	29.800 
02:30	74.2	74.2	74.2	89	70.7	0	1	292	0.00	29.798 
02:35	74.2	74.2	74.2	89	70.7	0	1	292	0.00	29.796 
02:40	74.2	74.2	74.2	88	70.4	0	2	292	0.00	29.793 
02:45	74.2	74.2	74.2	88	70.4	0	1	270	0.00	29.792 
02:50	74.2	74.2	74.2	88	70.4	0	1	270	0.00	29.791 
02:55	74.0	74.0	74.0	88	70.2	0	2	270	0.00	29.791 
03:00	74.0	74.0	74.0	88	70.2	0	1	270	0.00	29.791 
03:05	74.0	74.0	74.0	88	70.2	0	0	---	0.00	29.791 
03:10	73.9	73.9	73.9	88	70.1	0	1	270	0.00	29.790 
03:15	73.9	73.9	73.9	88	70.1	0	0	---	0.00	29.789 
03:20	73.9	73.9	73.9	88	70.1	0	1	270	0.00	29.790 
03:25	73.7	73.7	73.7	89	70.2	0	1	292	0.00	29.792 
03:30	73.5	73.5	73.5	89	70.0	0	1	292	0.00	29.792 
03:35	73.5	73.5	73.5	89	70.0	0	1	292	0.00	29.789 
03:40	73.5	73.5	73.5	89	70.0	0	0	---	0.00	29.791 
03:45	73.5	73.5	73.5	89	70.0	0	1	292	0.00	29.788 
03:50	73.5	73.5	73.5	89	70.0	0	2	292	0.00	29.791 
03:55	73.3	73.3	73.3	89	69.9	0	1	292	0.00	29.792 
04:00	73.3	73.3	73.3	89	69.9	0	3	292	0.00	29.793 
04:05	73.2	73.2	73.2	88	69.4	0	2	292	0.00	29.796 
04:10	73.2	73.2	73.2	88	69.4	0	1	292	0.00	29.797 
04:15	73.2	73.2	73.2	87	69.1	0	2	292	0.00	29.794 
04:20	73.2	73.2	73.2	87	69.1	0	1	292	0.00	29.799 
04:25	73.0	73.0	73.0	86	68.6	0	1	292	0.00	29.799 
04:30	73.0	73.0	73.0	85	68.2	0	0	---	0.00	29.796 
04:35	73.0	73.0	73.0	86	68.6	0	1	292	0.00	29.797 
04:40	73.0	73.0	73.0	86	68.6	0	2	292	0.00	29.798 
04:45	72.8	72.8	72.8	85	68.0	0	1	292	0.00	29.800 
04:50	72.8	72.8	72.8	85	68.0	0	1	292	0.00	29.802 
04:55	72.8	72.8	72.8	86	68.4	0	0	---	0.00	29.803 
05:00	72.7	72.7	72.7	86	68.3	0	1	292	0.00	29.803 
05:05	72.7	72.7	72.7	87	68.6	0	0	---	0.00	29.805 
05:10	72.7	72.7	72.7	87	68.6	0	1	292	0.00	29.809 
05:15	72.7	72.7	72.7	87	68.6	0	1	292	0.00	29.811 
05:20	72.5	72.5	72.5	87	68.4	0	1	292	0.00	29.815 
05:25	72.5	72.5	72.5	87	68.4	0	1	292	0.00	29.817 
05:30	72.3	72.3	72.3	88	68.5	0	0	---	0.00	29.819 
05:35	72.3	72.3	72.3	88	68.5	0	2	292	0.00	29.819 
05:40	72.3	72.3	72.3	88	68.5	0	1	292	0.00	29.820 
05:45	72.3	72.3	72.3	88	68.5	0	1	292	0.00	29.820 
05:50	72.3	72.3	72.3	88	68.5	0	1	292	0.00	29.821 
05:55	72.1	72.1	72.1	88	68.3	0	1	292	0.00	29.823 
06:00	72.1	72.1	72.1	88	68.3	0	3	292	0.00	29.828 
06:05	72.0	72.0	72.0	88	68.2	0	1	292	0.00	29.836 
06:10	72.0	72.0	72.0	88	68.2	0	1	292	0.00	29.839 
06:15	71.8	71.8	71.8	89	68.4	0	0	---	0.00	29.838 
06:20	71.8	71.8	71.8	89	68.4	0	2	292	0.00	29.841 
06:25	71.8	71.8	71.8	89	68.4	0	1	292	0.00	29.845 
06:30	71.6	71.6	71.6	89	68.2	0	2	292	0.00	29.853 
06:35	71.5	71.5	71.5	89	68.1	0	1	315	0.00	29.853 
06:40	71.3	71.3	71.3	89	67.9	0	1	315	0.00	29.854 
06:45	71.3	71.3	71.3	90	68.2	0	1	315	0.00	29.852 
06:50	71.5	71.5	71.5	90	68.4	0	1	315	0.00	29.852 
06:55	71.5	71.5	71.5	90	68.4	0	1	315	0.00	29.852 
07:00	71.6	71.6	71.6	90	68.5	0	1	315	0.00	29.854 
07:05	71.6	71.6	71.6	90	68.5	0	1	315	0.00	29.856 
07:10	71.6	71.6	71.6	90	68.5	0	1	315	0.00	29.859 
07:15	71.6	71.6	71.6	90	68.5	0	1	315	0.00	29.863 
07:20	71.8	71.8	71.8	90	68.7	0	1	315	0.00	29.870 
07:25	71.8	71.8	71.8	90	68.7	0	1	315	0.00	29.872 
07:30	71.8	71.8	71.8	89	68.4	0	2	315	0.00	29.872 
07:35	71.8	71.8	71.8	89	68.4	0	1	315	0.00	29.873 
07:40	71.8	71.8	71.8	90	68.7	0	1	315	0.00	29.875 
07:45	71.8	71.8	71.8	90	68.7	0	1	315	0.00	29.876 
07:50	72.0	72.0	72.0	89	68.6	0	1	315	0.00	29.877 
07:55	72.1	72.1	72.1	90	69.0	0	1	315	0.00	29.879 
08:00	72.3	72.3	72.3	89	68.9	0	1	315	0.00	29.882 
08:05	72.7	72.7	72.7	89	69.3	0	1	315	0.00	29.883 
08:10	73.0	73.0	73.0	89	69.6	0	1	315	0.00	29.884 
08:15	73.9	73.9	73.9	87	69.8	0	2	315	0.00	29.886 
08:20	74.7	74.7	74.7	83	69.2	0	2	315	0.00	29.885 
08:25	75.1	75.1	75.6	81	68.9	1	3	248	0.00	29.885 
08:30	74.7	74.7	74.7	81	68.5	1	3	270	0.00	29.885 
08:35	74.2	74.2	74.2	80	67.6	0	3	270	0.00	29.887 
08:40	74.0	74.0	74.0	82	68.1	0	1	270	0.00	29.888 
08:45	73.9	73.9	73.9	80	67.3	1	3	292	0.00	29.890 
08:50	73.9	73.9	73.9	81	67.7	0	2	292	0.00	29.893 
08:55	73.7	73.7	73.7	81	67.5	0	2	292	0.00	29.891 
09:00	73.9	73.9	73.9	82	68.0	0	1	292	0.00	29.888 
09:05	74.9	74.9	74.9	80	68.3	0	2	292	0.00	29.886 
09:10	75.8	75.8	76.9	78	68.4	0	1	292	0.00	29.886 
09:15	76.5	76.5	78.1	74	67.6	1	3	0	0.00	29.884 
09:20	77.4	77.4	79.3	72	67.6	1	3	68	0.00	29.884 
09:25	77.9	77.9	79.9	69	66.9	1	5	112	0.00	29.885 
09:30	78.3	78.3	80.4	69	67.3	1	5	135	0.00	29.888 
09:35	78.5	78.5	80.8	71	68.3	0	2	135	0.00	29.890 
09:40	78.3	78.3	80.4	69	67.3	0	2	338	0.00	29.893 
09:45	77.9	77.9	79.9	70	67.3	0	2	338	0.00	29.891 
09:50	77.7	77.7	79.7	71	67.5	0	2	0	0.00	29.893 
09:55	78.3	78.3	80.4	69	67.3	0	1	0	0.00	29.893 
10:00	78.8	78.8	81.0	68	67.3	1	3	90	0.00	29.889 
10:05	79.2	79.2	81.6	69	68.1	0	3	90	0.00	29.889 
10:10	79.0	79.0	81.3	69	67.9	1	3	292	0.00	29.889 
10:15	79.2	79.2	81.4	66	66.8	1	3	338	0.00	29.890 
10:20	79.4	79.4	81.7	67	67.5	0	2	338	0.00	29.893 
10:25	79.6	79.6	81.9	66	67.2	1	4	248	0.00	29.889 
10:30	80.1	80.1	82.4	64	66.8	0	2	45	0.00	29.890 
10:35	80.9	80.9	83.2	62	66.6	1	4	90	0.00	29.888 
10:40	80.9	80.9	82.9	60	65.7	1	4	90	0.00	29.891 
10:45	80.9	80.9	82.7	58	64.7	1	9	315	0.00	29.891 
10:50	81.2	81.2	82.7	56	64.0	0	4	45	0.00	29.893 
10:55	81.6	81.6	83.4	57	64.9	1	5	90	0.00	29.888 
11:00	81.8	81.8	83.6	57	65.0	0	2	90	0.00	29.889 
11:05	82.2	82.2	84.2	57	65.4	0	2	90	0.00	29.891 
11:10	82.4	82.4	84.2	56	65.1	1	4	90	0.00	29.888 
11:15	82.6	82.6	85.1	59	66.8	0	2	270	0.00	29.888 
11:20	82.4	82.4	84.4	57	65.6	1	3	270	0.00	29.890 
11:25	82.6	82.6	84.9	58	66.3	0	3	270	0.00	29.888 
11:30	83.4	83.4	85.4	55	65.5	1	4	135	0.00	29.887 
11:35	83.6	83.6	85.9	56	66.2	0	2	112	0.00	29.884 
11:40	83.4	83.4	85.8	57	66.5	0	3	180	0.00	29.886 
11:45	83.2	83.2	85.3	56	65.8	0	3	202	0.00	29.888 
11:50	83.6	83.6	85.7	55	65.7	1	3	112	0.00	29.886 
11:55	83.8	83.8	87.2	60	68.4	0	1	22	0.00	29.886 
12:00	84.1	84.1	86.7	56	66.7	1	3	0	0.00	29.884 
12:05	84.0	84.0	85.1	50	63.3	1	4	90	0.00	29.888 
12:10	83.6	83.6	85.0	52	64.1	2	5	68	0.00	29.889 
12:15	83.0	83.0	84.5	53	64.1	1	4	270	0.00	29.886 
12:20	83.0	83.0	84.7	54	64.6	1	2	270	0.00	29.887 
12:25	83.0	83.0	84.7	54	64.6	1	3	270	0.00	29.892 
12:30	82.8	82.8	83.5	49	61.7	2	4	315	0.00	29.892 
12:35	82.6	82.6	84.1	54	64.2	1	4	292	0.00	29.892 
12:40	82.8	82.8	84.0	52	63.3	1	4	315	0.00	29.891 
12:45	83.2	83.2	84.9	54	64.8	1	2	315	0.00	29.892 
12:50	83.0	83.0	84.1	51	63.0	1	5	338	0.00	29.891 
12:55	83.0	83.0	84.3	52	63.5	1	3	338	0.00	29.888 
13:00	83.4	83.4	84.4	50	62.8	1	3	315	0.00	29.888 
13:05	83.4	83.4	84.2	49	62.2	0	2	292	0.00	29.890 
13:10	83.6	83.6	85.0	52	64.1	1	5	292	0.00	29.890 
13:15	83.2	83.2	84.0	49	62.0	1	4	292	0.00	29.892 
13:20	83.6	83.6	85.2	53	64.6	1	5	292	0.00	29.889 
13:25	84.0	84.0	85.1	50	63.3	2	7	90	0.00	29.887 
13:30	84.3	84.3	85.3	49	63.0	1	4	315	0.00	29.886 
13:35	84.3	84.3	85.3	49	63.0	1	4	135	0.00	29.886 
13:40	84.3	84.3	85.1	48	62.4	0	3	0	0.00	29.886 
13:45	84.5	84.5	85.3	48	62.6	1	3	0	0.00	29.885 
13:50	84.1	84.1	84.3	45	60.4	1	3	315	0.00	29.888 
13:55	84.0	84.0	84.5	47	61.6	1	2	315	0.00	29.890 
14:00	84.0	84.0	84.1	45	60.3	1	2	338	0.00	29.890 
14:05	84.1	84.1	84.8	48	62.3	0	3	292	0.00	29.888 
14:10	84.5	84.5	85.6	49	63.2	1	4	292	0.00	29.888 
14:15	84.9	84.9	85.6	47	62.4	1	3	68	0.00	29.887 
14:20	85.3	85.3	86.4	48	63.4	1	3	68	0.00	29.889 
14:25	85.1	85.1	86.6	50	64.3	1	2	45	0.00	29.886 
14:30	85.1	85.1	85.9	47	62.6	1	2	270	0.00	29.884 
14:35	84.7	84.7	85.2	46	61.6	1	3	292	0.00	29.885 
14:40	84.9	84.9	86.3	50	64.2	1	2	292	0.00	29.882 
14:45	84.7	84.7	85.0	45	61.0	1	2	315	0.00	29.884 
14:50	84.5	84.5	84.9	46	61.4	0	1	315	0.00	29.883 
14:55	84.7	84.7	85.2	46	61.6	0	3	315	0.00	29.881 
15:00	84.9	84.9	85.0	44	60.5	1	3	68	0.00	29.882 
15:05	84.9	84.9	86.1	49	63.6	0	3	315	0.00	29.882 
15:10	84.9	84.9	85.8	48	63.0	1	3	292	0.00	29.882 
15:15	84.7	84.7	84.7	44	60.3	0	2	292	0.00	29.877 
15:20	85.1	85.1	85.7	46	62.0	1	3	135	0.00	29.875 
15:25	84.7	84.7	85.6	48	62.8	1	2	292	0.00	29.875 
15:30	84.9	84.9	85.4	46	61.8	1	3	112	0.00	29.874 
15:35	84.9	84.9	85.6	47	62.4	1	2	248	0.00	29.875 
15:40	84.7	84.7	85.0	45	61.0	1	2	315	0.00	29.877 
15:45	84.5	84.5	84.9	46	61.4	1	2	315	0.00	29.878 
15:50	84.3	84.3	84.7	46	61.2	1	5	248	0.00	29.881 
15:55	84.5	84.5	84.5	44	60.2	1	3	202	0.00	29.883 
16:00	84.5	84.5	84.3	43	59.5	0	1	292	0.00	29.884 
16:05	84.5	84.5	84.9	46	61.4	0	1	292	0.00	29.884 
16:10	84.5	84.5	84.3	43	59.5	1	2	292	0.00	29.884 
16:15	84.3	84.3	84.5	45	60.6	0	1	292	0.00	29.884 
16:20	84.5	84.5	84.9	46	61.4	0	2	315	0.00	29.883 
16:25	84.9	84.9	85.4	46	61.8	0	2	315	0.00	29.884 
16:30	84.7	84.7	84.6	43	59.7	0	3	292	0.00	29.884 
16:35	84.7	84.7	84.7	44	60.3	0	2	292	0.00	29.886 
16:40	84.5	84.5	84.9	46	61.4	0	3	45	0.00	29.886 
16:45	84.3	84.3	84.1	43	59.3	1	3	292	0.00	29.889 
16:50	84.0	84.0	84.0	44	59.7	0	3	22	0.00	29.889 
16:55	84.0	84.0	84.3	46	61.0	0	1	22	0.00	29.886 
17:00	83.8	83.8	84.7	49	62.6	1	3	0	0.00	29.887 
17:05	83.6	83.6	83.9	46	60.6	0	2	315	0.00	29.887 
17:10	83.6	83.6	83.9	46	60.6	0	2	315	0.00	29.888 
17:15	83.4	83.4	84.2	49	62.2	0	1	315	0.00	29.889 
17:20	83.4	83.4	84.6	51	63.3	0	2	315	0.00	29.889 
17:25	83.2	83.2	83.8	48	61.4	0	3	292	0.00	29.893 
17:30	83.0	83.0	84.1	51	63.0	0	2	292	0.00	29.891 
17:35	83.0	83.0	84.3	52	63.5	0	2	292	0.00	29.893 
17:40	82.8	82.8	84.0	52	63.3	0	2	0	0.00	29.895 
17:45	82.8	82.8	84.2	53	63.9	0	1	0	0.00	29.895 
17:50	82.8	82.8	83.8	51	62.8	0	2	0	0.00	29.897 
17:55	82.8	82.8	84.2	53	63.9	0	1	315	0.00	29.897 
18:00	82.4	82.4	83.9	54	64.1	0	1	315	0.00	29.897 
18:05	82.4	82.4	83.9	54	64.1	0	1	315	0.00	29.900 
18:10	82.4	82.4	83.9	54	64.1	0	1	315	0.00	29.901 
18:15	82.2	82.2	83.6	54	63.9	0	1	315	0.00	29.902 
18:20	82.0	82.0	83.2	53	63.2	0	1	315	0.00	29.902 
18:25	81.8	81.8	83.3	55	64.0	0	1	315	0.00	29.903 
18:30	81.6	81.6	83.2	56	64.4	0	1	315	0.00	29.903 
18:35	81.4	81.4	83.0	56	64.2	0	1	315	0.00	29.903 
18:40	81.2	81.2	82.9	57	64.5	0	1	315	0.00	29.903 
18:45	81.1	81.1	82.8	57	64.4	0	1	315	0.00	29.904 
18:50	80.9	80.9	82.5	57	64.2	0	1	315	0.00	29.905 
18:55	80.7	80.7	82.4	58	64.5	0	1	315	0.00	29.905 
19:00	80.3	80.3	82.1	59	64.6	0	0	---	0.00	29.904 
19:05	80.1	80.1	81.8	59	64.5	0	0	---	0.00	29.905 
19:10	79.9	79.9	81.7	60	64.7	0	1	315	0.00	29.905 
19:15	79.6	79.6	81.3	60	64.5	0	0	---	0.00	29.903 
19:20	79.4	79.4	81.2	61	64.8	0	0	---	0.00	29.903 
19:25	79.2	79.2	81.1	62	65.0	0	0	---	0.00	29.905 
19:30	78.8	78.8	80.6	62	64.7	0	0	---	0.00	29.906 
19:35	78.6	78.6	80.4	63	64.9	0	0	---	0.00	29.906 
19:40	78.3	78.3	80.2	64	65.1	0	0	---	0.00	29.905 
19:45	78.1	78.1	79.9	64	64.9	0	0	---	0.00	29.903 
19:50	77.7	77.7	79.5	65	65.0	0	0	---	0.00	29.905 
19:55	77.4	77.4	79.2	65	64.7	0	0	---	0.00	29.905 
20:00	77.2	77.2	79.0	66	64.9	0	0	---	0.00	29.907 
20:05	76.8	76.8	78.6	68	65.4	0	0	---	0.00	29.905 
20:10	76.7	76.7	78.5	68	65.3	0	0	---	0.00	29.907 
20:15	76.3	76.3	78.0	68	64.9	0	0	---	0.00	29.911 
20:20	76.3	76.3	78.0	69	65.4	0	0	---	0.00	29.913 
20:25	76.1	76.1	77.8	69	65.2	0	0	---	0.00	29.917 
20:30	76.0	76.0	77.7	69	65.1	0	0	---	0.00	29.916 
20:35	75.8	75.8	77.5	69	64.9	0	0	---	0.00	29.917 
20:40	75.4	75.4	77.1	70	64.9	0	0	---	0.00	29.920 
20:45	75.3	75.3	77.0	70	64.8	0	0	---	0.00	29.922 
20:50	75.1	75.1	76.7	71	65.0	0	0	---	0.00	29.924 
20:55	74.9	74.9	74.9	72	65.2	0	0	---	0.00	29.924 
21:00	74.6	74.6	74.6	72	65.0	0	0	---	0.00	29.924 
21:05	74.4	74.4	74.4	73	65.2	0	0	---	0.00	29.921 
21:10	74.2	74.2	74.2	73	65.0	0	0	---	0.00	29.920 
21:15	74.0	74.0	74.0	73	64.8	0	0	---	0.00	29.924 
21:20	73.9	73.9	73.9	74	65.1	0	0	---	0.00	29.925 
21:25	73.7	73.7	73.7	74	64.9	0	0	---	0.00	29.924 
21:30	73.5	73.5	73.5	75	65.1	0	0	---	0.00	29.928 
21:35	73.5	73.5	73.5	76	65.5	0	0	---	0.00	29.930 
21:40	73.3	73.3	73.3	76	65.3	0	0	---	0.00	29.929 
21:45	73.2	73.2	73.2	77	65.5	0	0	---	0.00	29.931 
21:50	73.0	73.0	73.0	77	65.3	0	0	---	0.00	29.930 
21:55	72.8	72.8	72.8	78	65.5	0	0	---	0.00	29.932 
22:00	72.7	72.7	72.7	78	65.4	0	0	---	0.00	29.934 
22:05	72.5	72.5	72.5	79	65.6	0	0	---	0.00	29.932 
22:10	72.3	72.3	72.3	79	65.4	0	0	---	0.00	29.931 
22:15	72.1	72.1	72.1	80	65.6	0	0	---	0.00	29.931 
22:20	72.0	72.0	72.0	80	65.5	0	0	---	0.00	29.932 
22:25	71.8	71.8	71.8	81	65.6	0	0	---	0.00	29.933 
22:30	71.6	71.6	71.6	82	65.8	0	0	---	0.00	29.933 
22:35	71.5	71.5	71.5	82	65.7	0	0	---	0.00	29.934 
22:40	71.3	71.3	71.3	83	65.9	0	0	---	0.00	29.935 
22:45	71.1	71.1	71.1	83	65.7	0	0	---	0.00	29.935 
22:50	70.9	70.9	70.9	84	65.8	0	0	---	0.00	29.935 
22:55	70.8	70.8	70.8	84	65.7	0	0	---	0.00	29.935 
23:00	70.6	70.6	70.6	85	65.9	0	0	---	0.00	29.936 
23:05	70.8	70.8	70.8	85	66.1	0	0	---	0.00	29.935 
23:10	70.6	70.6	70.6	86	66.2	0	0	---	0.00	29.935 
23:15	70.8	70.8	70.8	86	66.4	0	0	---	0.00	29.935 
23:20	70.9	70.9	70.9	86	66.5	0	0	---	0.00	29.933 
23:25	70.9	70.9	70.9	86	66.5	0	0	---	0.00	29.933 
23:30	70.9	70.9	70.9	86	66.5	0	0	---	0.00	29.932 
23:35	71.1	71.1	71.1	87	67.0	0	0	---	0.00	29.933 
23:40	71.3	71.3	71.3	87	67.2	0	0	---	0.00	29.934 
23:45	71.3	71.3	71.3	86	66.9	0	0	---	0.00	29.934 
23:50	71.5	71.5	71.5	85	66.7	0	0	---	0.00	29.934 
23:55	71.5	71.5	71.5	85	66.7	0	0	---	0.00	29.933 

CoCoRaHS
IN-AL-39
A2 Web Hosting
Creative Commons License
GoDaddy
Look for:

loaded 2017-12-11 14:28:00 • last modified 2010-11-18 10:43:29
Privacy PolicyDisclaimer
• wx.awcolley.com is powered by PmWiki v.2002016 •
• all content (unless otherwise noted) © 2017 A W Colley